Terminal Aerodrome Forecast
Issued by NWS

Current Version | Previous Version | Graphics & Text | Print | Product List | Glossary On
Versions: 1 2 3 4 5 6 7 8 9 10 11 12 13 14 15 16 17 18 19 20 21
000
FTUS41 KPBZ 290500
TAFMGW
TAF
KMGW 290532Z 2906/3006 26005KT P6SM VCSH SCT015 BKN040 OVC080
      TEMPO 2906/2908 5SM -SHRA BKN025 OVC040
     FM291700 25010KT P6SM BKN050=

USA.gov is the U.S. government's official web portal to all federal, state and local government web resources and services.